Lapse_Rate
6.3 6.4 6.5 6.7 6.8 6.9 7.0 7.0 7.1 7.1 7.1 7.3 7.5 7.5 7.3 7.4 7.5 7.5 7.3 7.4 7.5 7.4 7.1 7.2 7.0 6.7 6.6 6.8 6.6 6.3 6.2 6.0 6.2 6.2 5.9 5.8 5.7 6.0 6.2 6.3 6.4 6.1 5.9 5.9
6.5 6.6 6.7 6.8 6.9 7.0 7.0 6.9 7.1 7.2 7.4 7.4 7.4 7.3 7.2 7.3 7.5 7.4 7.2 7.2 7.2 6.9 6.8 6.8 6.6 6.5 6.6 6.7 6.5 6.2 6.1 6.2 6.2 6.0 5.7 5.8 5.8 5.7 5.9 6.1 6.4 6.4 6.2 6.0
6.7 6.8 6.9 6.9 7.0 7.0 7.0 7.1 7.1 7.1 7.0 7.1 7.3 6.9 7.0 7.2 7.4 7.4 7.4 7.4 6.9 6.6 6.7 6.7 6.7 6.6 6.9 6.6 6.4 6.2 6.1 6.1 6.2 6.0 5.8 5.8 5.7 5.6 5.6 5.8 6.0 6.2 6.4 6.4
6.8 7.0 7.1 7.0 7.0 7.0 7.0 6.9 6.8 6.8 6.8 7.1 7.0 7.5 7.1 7.0 7.1 7.3 7.4 7.4 7.3 7.1 6.9 6.7 6.7 6.9 6.7 6.5 6.4 6.4 6.2 6.2 6.3 6.1 5.8 5.7 5.5 5.4 5.4 5.6 5.9 6.0 6.1 6.5
6.9 7.1 7.1 7.0 7.1 7.0 6.9 6.8 6.8 6.8 6.8 6.7 6.8 6.8 7.0 7.2 7.4 7.5 7.4 7.5 7.6 7.3 6.9 6.7 6.8 6.8 6.5 6.5 6.6 6.5 6.4 6.4 6.3 6.1 5.9 5.9 5.6 5.3 5.4 5.3 5.5 5.8 6.1 6.3
6.9 7.1 7.1 7.1 7.1 7.1 6.9 6.8 6.8 6.8 6.7 6.8 6.7 6.9 7.1 7.0 7.2 7.4 7.5 7.5 7.4 7.2 6.8 6.7 6.8 6.6 6.7 6.9 6.8 6.6 6.5 6.3 6.2 6.1 6.1 5.9 5.4 5.5 5.5 5.6 5.6 5.7 5.9 6.1
7.1 7.1 7.2 7.2 7.2 7.1 7.1 7.0 7.0 7.0 6.9 7.3 6.2 6.3 7.1 7.1 7.2 7.2 7.1 7.0 7.0 6.9 6.8 6.8 6.7 6.9 7.1 7.0 6.8 6.7 6.5 6.4 6.3 6.3 6.1 5.9 5.7 5.7 5.6 5.7 5.8 5.8 5.9 6.1
7.2 7.3 7.4 7.4 7.3 7.3 7.2 7.1 7.0 6.5 7.2 7.2 6.4 6.7 6.9 7.1 7.1 7.1 7.0 6.9 6.8 6.6 6.8 6.9 7.1 7.2 7.1 6.8 6.7 6.7 6.5 6.3 6.4 6.4 6.2 5.9 5.7 5.9 6.0 5.9 5.7 5.5 5.3 5.4
7.4 7.5 7.7 7.6 7.4 7.4 7.2 7.1 7.4 7.0 6.1 6.5 6.8 6.8 7.2 7.2 7.2 7.1 7.2 7.1 6.9 6.9 7.0 7.2 7.3 7.2 6.9 6.8 6.7 6.6 6.5 6.4 6.5 6.3 6.0 6.0 6.2 6.2 6.1 5.6 5.0 4.6 4.8 4.7
7.8 7.9 7.9 7.8 7.5 7.4 7.4 7.6 7.2 7.1 6.7 7.1 7.1 6.6 7.4 7.4 7.5 7.5 7.3 7.3 7.1 7.1 7.2 7.3 7.2 6.9 6.7 6.6 6.6 6.6 6.4 6.5 6.4 6.3 6.2 6.3 6.3 6.1 5.7 5.3 4.4 4.2 4.3 4.4
7.9 8.0 8.1 8.1 7.9 7.7 7.6 7.5 7.6 7.4 7.2 7.3 7.3 7.6 7.5 7.6 7.6 7.5 7.4 7.3 7.2 7.1 7.2 7.1 6.9 6.7 6.6 6.7 6.5 6.5 6.5 6.5 6.6 6.6 6.4 6.3 6.0 5.6 5.5 5.0 4.8 4.6 4.5 4.8
8.5 8.0 7.9 8.1 8.2 8.1 7.8 7.9 7.9 7.6 7.1 6.9 6.3 7.1 7.7 7.6 7.5 7.5 7.5 7.3 7.1 7.2 7.1 6.9 6.7 6.7 6.7 6.6 6.4 6.5 6.7 6.8 6.8 6.4 6.3 6.1 5.6 5.4 5.2 5.2 5.1 4.8 4.9 5.0
8.9 8.1 8.0 7.9 7.7 7.7 7.8 8.0 7.9 8.0 7.9 7.4 6.7 7.5 7.8 7.6 7.5 7.6 7.6 7.5 7.5 7.3 7.0 6.7 6.7 6.7 6.4 6.5 6.5 6.8 6.9 6.8 6.4 6.4 6.2 5.6 5.4 5.3 5.1 5.3 5.3 5.1 4.8 5.0
8.7 8.6 8.3 8.1 8.4 8.3 7.8 8.1 7.9 7.9 7.6 7.6 7.2 7.5 7.6 7.4 7.6 7.7 7.7 7.7 7.5 7.1 6.9 6.9 6.7 6.5 6.5 6.5 6.6 6.9 6.8 6.5 6.4 6.3 5.9 5.6 5.5 5.0 4.9 5.1 5.2 5.4 5.2 5.1
8.3 8.5 8.7 8.7 8.6 8.4 8.2 8.2 8.0 8.0 7.8 7.6 7.6 7.4 7.5 7.5 7.6 7.5 7.6 7.4 7.0 7.0 6.8 6.6 6.6 6.6 6.7 6.8 6.8 6.6 6.5 6.4 6.2 6.0 5.9 5.6 5.2 5.0 5.3 5.2 5.1 5.3 5.3 5.0
7.7 8.4 8.6 8.5 8.6 8.5 8.1 7.8 7.7 7.7 7.5 7.2 7.2 7.4 7.5 7.5 7.5 7.4 7.2 6.9 6.8 6.6 6.6 6.6 6.6 6.6 6.6 6.3 6.2 6.4 6.4 6.2 6.0 5.7 5.6 5.4 4.7 4.9 5.0 5.1 5.0 5.3 5.3 4.8
8.2 8.4 8.4 8.1 8.3 8.3 7.5 7.6 7.9 7.8 7.6 7.6 7.5 7.6 7.5 7.3 7.2 6.9 6.6 6.6 6.5 6.4 6.6 6.5 6.4 6.5 6.1 6.0 6.3 6.3 6.1 5.9 5.6 5.4 5.0 5.0 4.9 5.2 5.2 5.2 5.3 5.0 5.1 5.2
7.9 8.0 8.3 8.4 7.8 7.5 7.8 7.5 8.0 8.0 7.8 7.7 7.7 7.6 7.3 7.0 6.8 6.4 6.4 6.4 6.4 6.4 6.3 6.3 6.3 5.9 5.9 6.1 6.2 6.0 5.9 5.5 5.3 5.0 5.0 4.5 5.1 5.2 5.0 4.8 5.0 5.3 5.0 5.1
7.8 7.8 8.1 8.1 7.3 7.8 7.0 7.3 7.8 7.9 7.6 7.5 7.3 7.3 7.0 6.6 6.4 6.3 6.2 6.3 6.1 6.1 6.1 6.0 5.8 5.7 5.8 6.1 6.1 6.0 5.5 5.1 5.0 4.9 4.7 5.0 4.8 5.1 4.9 5.0 5.2 5.1 5.0 5.1
6.9 7.0 7.1 6.6 7.5 7.1 7.4 7.8 7.7 7.7 7.3 7.4 7.1 6.9 6.7 6.5 6.2 6.1 6.0 5.9 5.9 5.9 5.7 5.6 5.5 5.7 6.0 6.2 6.2 5.6 5.0 4.9 4.8 4.6 4.8 4.9 4.9 4.8 4.9 4.7 4.7 4.8 5.0 5.0
6.6 5.7 5.8 6.5 6.8 7.0 7.0 7.4 7.3 7.2 7.5 7.4 7.0 6.8 6.6 6.3 6.1 5.9 5.9 5.9 5.8 5.5 5.4 5.4 5.6 5.8 6.2 6.3 5.7 5.1 4.6 4.5 4.4 4.6 4.5 4.7 4.7 4.5 4.6 4.2 4.3 4.7 4.6 4.8
6.0 5.9 5.7 5.5 5.5 5.9 6.7 6.9 7.1 7.2 7.2 6.9 6.9 6.7 6.4 6.1 6.0 5.9 5.8 5.7 5.4 5.3 5.2 5.5 5.6 5.9 6.1 5.8 5.2 4.6 4.2 4.1 4.2 4.3 4.3 4.2 4.4 4.4 4.2 3.9 4.3 4.4 4.3 4.7
6.0 5.9 5.8 5.9 5.7 5.6 6.2 6.4 6.5 6.6 7.0 6.8 6.5 6.4 6.2 6.0 5.9 5.8 5.7 5.4 5.3 5.2 5.3 5.4 5.6 5.7 5.6 5.4 4.8 4.1 3.9 3.8 4.0 4.0 4.0 4.0 3.9 3.9 3.7 3.8 3.9 3.8 4.0 4.3
6.5 6.2 5.8 5.7 6.0 5.7 6.2 6.5 6.3 6.6 6.8 6.8 6.4 6.1 6.1 5.9 5.8 5.8 5.4 5.2 5.2 5.2 5.3 5.4 5.4 5.2 5.1 5.1 4.5 3.9 3.5 3.7 3.6 3.4 3.7 3.9 4.0 4.1 4.0 3.9 3.9 4.1 4.4 4.4
6.4 6.3 6.3 6.1 6.1 5.7 6.0 6.0 6.4 6.7 6.7 6.7 6.4 6.1 6.0 5.9 5.8 5.5 5.2 5.1 5.2 5.3 5.2 5.3 5.0 4.7 4.7 4.8 4.2 3.6 3.2 3.3 3.9 3.8 4.0 4.1 4.1 4.2 4.2 4.2 4.3 4.3 4.4 4.7
6.5 6.6 6.2 6.2 6.2 6.0 5.8 5.8 6.1 6.8 6.8 6.7 6.5 6.2 6.0 5.7 5.6 5.3 5.1 5.2 5.2 5.3 5.2 5.2 4.8 4.4 4.4 4.5 4.0 3.8 3.8 4.2 4.1 4.1 4.3 4.3 4.2 4.4 4.4 4.4 4.5 4.6 4.5 4.6
Wind_Speed
2 3 6 8 4 2 5 4 3 2 2 10 14 9 10 18 17 17 17 17 17 16 14 9 9 9 8 9 10 10 8 8 5 4 6 6 7 6 6 7 9 11 11 13
3 5 3 5 7 5 5 4 3 3 2 6 7 10 3 15 21 21 19 18 17 15 13 10 9 9 10 11 10 10 10 7 6 5 4 4 5 7 7 9 11 13 14 14
4 2 4 6 6 8 3 4 4 2 3 3 4 6 6 6 10 11 14 15 15 17 16 13 11 12 11 12 9 8 7 7 5 4 4 5 6 6 8 9 11 12 21 23
3 1 6 8 6 4 5 4 5 4 3 5 3 6 5 8 10 10 13 15 18 18 14 12 12 10 7 5 3 4 4 4 5 5 4 6 6 9 10 12 12 14 22 21
3 5 6 5 4 6 2 3 3 2 2 2 3 4 5 3 9 11 9 12 15 16 14 13 10 4 4 5 6 7 8 8 8 8 8 7 10 11 11 12 16 15 15 18
2 2 2 2 4 1 11 5 5 3 1 5 3 5 5 5 4 2 4 9 12 12 11 6 2 5 7 7 8 8 8 9 10 11 12 12 14 15 14 15 14 13 13 13
2 2 1 2 6 5 3 4 2 3 3 2 2 3 6 3 4 5 9 10 9 8 7 3 3 6 7 8 8 8 10 9 11 12 13 15 16 18 17 16 13 16 13 13
6 6 6 5 5 6 5 4 3 3 2 2 2 4 1 1 5 6 8 10 9 7 3 5 7 8 8 8 9 9 10 12 13 14 16 15 16 12 13 14 13 11 11 13
5 5 1 1 2 2 5 5 3 5 2 3 1 2 7 3 2 7 8 8 9 4 6 8 9 9 8 8 9 10 11 12 14 15 14 15 15 16 14 16 13 11 14 13
6 2 1 3 3 8 2 11 3 2 3 3 2 4 4 5 9 9 9 13 8 6 9 9 9 8 7 7 8 10 11 13 14 14 14 13 15 15 14 14 16 16 15 16
8 5 3 4 6 8 5 4 4 3 1 3 2 2 4 8 10 12 13 8 5 7 8 9 7 6 7 8 9 11 12 13 14 14 15 15 15 16 15 14 14 15 16 16
8 6 9 9 3 1 1 4 7 4 5 1 1 6 2 4 6 6 8 5 7 9 9 8 6 6 8 9 11 11 12 14 14 15 15 15 15 16 14 14 15 15 15 15
9 4 6 4 3 3 5 5 4 5 2 7 4 4 2 0 2 2 4 9 10 10 8 6 6 7 8 9 11 13 14 15 15 15 15 16 17 16 15 15 15 15 14 15
6 4 8 10 13 4 7 8 9 7 5 6 8 11 4 2 2 5 9 10 10 8 6 6 6 7 9 11 13 14 14 15 15 16 15 14 16 16 15 14 15 14 14 14
3 7 5 3 4 6 6 14 14 12 7 7 6 7 5 3 5 9 10 10 9 7 6 7 8 10 12 13 14 14 14 14 14 16 14 15 15 15 14 14 14 14 13 13
2 4 4 4 4 5 4 9 12 10 7 10 7 10 3 3 8 9 9 9 8 7 7 9 11 12 13 14 14 14 14 14 14 15 14 14 14 13 13 13 14 13 13 13
3 5 5 6 6 2 6 12 12 7 7 8 9 6 10 9 9 8 8 8 8 7 8 9 9 11 12 13 13 13 13 14 14 14 12 13 14 13 13 13 13 14 14 14
4 1 1 4 9 9 2 1 8 9 5 8 2 7 12 12 10 8 6 9 9 8 7 8 9 10 11 11 13 12 12 12 13 11 10 12 12 13 13 13 13 13 12 13
2 2 2 5 9 2 2 5 8 8 6 6 8 13 12 12 10 8 8 10 10 8 7 7 8 9 10 11 12 12 11 11 10 10 11 12 12 13 13 12 12 12 11 11
3 5 3 2 9 8 3 9 7 6 4 11 13 15 14 10 5 5 8 9 9 8 8 8 9 8 9 11 11 10 10 8 9 11 10 10 11 12 12 11 11 10 9 10
0 3 4 4 7 3 3 7 7 6 1 16 16 14 12 5 5 14 11 9 8 8 9 8 8 8 10 10 10 9 7 9 10 9 8 10 12 11 11 11 7 10 11 9
5 6 3 2 2 6 4 7 7 1 2 14 14 11 10 12 14 13 10 9 8 8 7 9 8 9 9 9 7 9 9 7 6 7 11 13 12 9 8 12 12 12 12 10
4 5 3 7 4 2 3 2 5 3 11 12 14 12 15 15 14 12 10 8 8 6 7 6 8 9 6 7 8 9 8 9 11 11 12 11 10 11 11 11 13 10 11 11
5 6 3 2 7 3 5 5 4 5 11 14 14 15 14 15 14 12 10 8 6 7 7 7 10 10 7 5 7 7 9 10 11 11 10 9 9 10 11 10 10 11 12 11
2 7 8 4 10 5 4 4 6 11 13 15 13 14 14 16 13 12 10 8 7 8 8 9 9 6 5 6 8 9 10 10 11 10 9 8 7 8 7 8 9 10 12 11
5 6 9 5 6 4 2 6 11 14 14 15 17 13 12 13 15 13 10 9 9 9 10 8 6 4 5 6 8 9 9 10 10 9 8 7 7 7 7 7 5 6 7 12
Wind_Direction
68 205 199 193 195 119 147 157 173 183 202 202 211 220 189 187 201 201 203 203 204 208 213 220 219 229 233 234 239 239 251 253 250 261 268 268 276 292 289 287 288 291 294 296
168 204 180 147 156 145 160 176 180 143 54 210 192 207 214 190 208 205 204 207 207 210 221 232 239 242 244 251 255 259 267 291 282 262 262 278 298 294 296 295 297 298 299 298
216 121 134 155 154 153 165 194 177 185 114 79 160 194 183 193 229 236 234 226 212 211 219 222 230 234 240 249 267 279 298 304 299 290 282 287 279 275 292 300 305 307 306 302
226 135 161 151 174 185 178 180 145 139 199 232 317 246 213 187 222 232 233 218 214 211 221 234 239 245 256 291 345 343 354 38 45 22 5 350 317 307 310 301 301 300 299 299
169 173 168 178 194 184 116 126 87 82 124 232 189 254 233 232 241 215 217 218 211 203 214 233 242 276 44 37 50 72 78 64 43 28 9 340 324 312 308 302 304 304 301 302
273 297 218 147 86 87 141 100 67 71 114 252 257 251 229 212 245 216 172 179 181 198 216 224 85 85 76 75 74 70 57 40 18 3 349 339 323 317 313 311 308 307 310 308
262 217 283 159 118 112 150 154 238 207 196 274 106 247 279 289 261 262 178 181 191 200 200 196 158 106 94 79 59 44 26 10 357 345 340 335 326 321 312 315 313 316 309 305
205 208 198 172 222 198 185 210 180 217 214 55 159 240 88 293 290 240 201 206 205 198 158 110 111 111 95 71 47 27 6 351 347 344 339 334 327 321 315 317 310 305 305 303
176 243 89 55 122 205 149 199 97 109 75 257 233 255 258 240 225 189 192 194 200 154 118 115 106 93 75 54 32 9 356 347 346 342 335 331 328 323 316 311 308 303 298 297
179 220 27 125 115 58 222 140 148 129 193 251 209 267 248 211 221 208 203 212 186 123 128 115 98 84 63 38 13 4 357 349 341 339 335 330 323 321 312 309 305 304 301 299
166 210 167 174 208 193 148 182 70 117 189 218 267 241 216 219 218 217 224 213 159 136 125 111 97 75 45 21 7 359 354 345 346 343 337 332 328 324 318 311 308 305 303 301
191 198 217 206 113 177 229 201 179 216 201 194 261 259 180 274 267 248 246 188 132 122 117 104 79 46 21 7 1 356 352 351 348 340 335 332 328 322 315 314 311 311 312 312
177 203 203 178 175 158 214 184 157 109 107 211 189 247 147 12 203 211 145 129 122 123 113 90 54 28 9 0 360 0 356 351 343 342 335 331 327 326 325 320 320 317 318 317
143 158 205 211 224 157 183 190 188 194 212 241 229 263 234 227 209 128 122 118 118 109 92 61 34 15 6 7 4 357 351 349 344 336 332 329 329 332 328 322 324 325 324 320
213 218 197 237 202 173 177 185 177 201 207 220 247 213 264 276 179 135 124 129 124 108 79 44 20 11 8 3 360 353 349 343 335 334 334 333 329 328 323 327 328 326 325 324
273 216 153 175 173 199 190 179 186 201 198 240 249 251 216 131 131 136 134 128 111 89 57 33 20 10 6 1 352 348 345 338 332 336 336 332 334 329 329 330 332 330 333 333
304 163 175 210 175 146 253 214 198 193 208 230 228 264 154 149 134 107 111 107 98 75 47 29 16 12 6 357 349 347 342 339 343 343 334 335 336 332 334 338 342 344 342 342
304 227 233 153 150 225 98 288 209 184 179 220 233 172 164 134 102 83 102 112 95 71 45 29 19 12 5 356 355 344 341 344 343 337 333 339 339 339 342 346 350 349 348 350
95 276 182 198 214 303 126 170 150 170 200 187 184 157 138 135 125 81 81 83 85 73 56 41 26 15 2 358 352 347 355 351 344 345 347 346 345 349 350 349 348 348 345 348
78 33 206 258 234 227 166 175 166 147 227 170 167 161 156 166 199 116 128 102 88 73 55 38 27 16 6 359 346 357 359 348 357 358 350 340 350 355 351 346 346 347 351 351
319 240 297 234 226 294 253 152 152 184 68 166 178 167 157 159 51 124 121 100 84 67 52 42 36 19 11 8 17 15 356 10 2 355 344 346 357 357 353 1 346 357 349 355
189 171 160 163 229 252 344 136 187 77 12 154 152 149 123 114 124 126 120 106 84 67 54 48 37 35 33 26 20 33 28 0 347 350 351 357 4 2 358 6 5 8 8 3
220 205 184 198 201 162 278 270 304 218 161 150 140 131 132 135 136 135 123 107 87 75 68 54 55 62 57 54 39 34 7 355 351 356 5 12 22 22 18 17 13 12 17 16
222 190 227 189 248 271 260 228 235 221 146 137 131 135 141 136 140 133 128 118 108 89 79 83 92 97 70 28 18 6 360 350 356 2 12 18 20 17 29 29 27 28 17 15
255 174 213 231 268 312 295 238 202 145 128 122 126 136 139 139 141 138 133 128 116 108 108 109 104 89 44 8 21 13 1 358 4 6 15 17 16 18 25 45 38 43 44 33
209 224 212 236 208 273 358 175 175 140 141 135 129 126 137 141 140 140 134 131 134 131 128 120 107 75 21 8 20 8 3 7 10 15 15 14 15 17 21 19 30 100 56 38